Regional Weather Roundup
Issued by NWS Goodland, KS

Home | Current Version | Previous Version | Text Only | Print | Product List | Glossary Off
Versions: 1 2 3 4 5 6 7 8 9 10 11 12 13 14 15 16 17 18 19 20 21 22 23 24 25 26 27 28 29 30 31 32 33 34 35 36 37 38 39 40 41 42 43 44 45 46 47 48 49 50

000
ASUS43 KGLD 300608
RWRGLD

GOODLAND FORECAST AREA HOURLY WEATHER ROUNDUP
NATIONAL WEATHER SERVICE GOODLAND KS
1200 AM MDT MON MAY 30 2016

...OFFICIAL OBSERVATIONS...

CITY           SKY/WX    TMP DP  RH WIND       PRES   REMARKS
GOODLAND KS    LGT RAIN  57  52  83 E9        30.14R
HILL CITY KS   CLOUDY    63  53  70 SE8       30.03F
IMPERIAL NEB   LGT RAIN  60  52  74 S8        30.13F
MCCOOK NEB     CLOUDY    64  52  64 SE8       30.07R
AKRON CO       CLOUDY    54  50  86 SE12      30.11R
BURLINGTON CO  CLOUDY    56  50  80 SW10      30.12F
LIMON CO       PTCLDY    52  46  80 SE9       30.16S
$$

...UNOFFICIAL OBSERVATIONS...

CITY           SKY/WX    TMP DP  RH WIND       PRES   REMARKS
GOVE KS          N/A     73  32  22 MISG        N/A
LENORA KS        N/A     60  32  34 MISG        N/A
SHARON SPRINGS   N/A     56  51  85 S8          N/A
KIT CARSON CO    N/A     55  49  80 CALM        N/A
YUMA CO          N/A     57  51  81 SE13G21     N/A
$$




USA.gov is the U.S. government's official web portal to all federal, state and local government web resources and services.